#timestamp,LO_Frequency,Hit,StdDev 
1513753215.6,286047003.6,N
1513753235.4,286047004.2,N
1513753255.2,286047004.4,N
1513753275.1,286047004.0,N
1513753276.0,286047004.0,N
1513753295.8,286047003.7,N
1513753315.7,286047005.4,Y
1513753335.5,286046998.7,P
1513753355.3,286046998.4,N
1513753375.2,286047000.7,N
1513753395.0,286047000.6,N
1513753395.9,286047000.6,N
1513753415.7,286047000.0,N
1513753435.6,286047001.0,N
1513753455.4,286047000.4,N
1513753475.3,286046999.1,N
1513753495.1,286046998.4,N
1513753496.0,286046998.4,N
1513753515.8,286047001.2,N
1513753535.7,286046999.9,N
1513753555.5,286047000.6,N
1513753575.4,286046998.2,N
1513753595.2,286046998.3,N
1513753615.0,286046998.6,N
1513753615.9,286046998.6,N
1513753635.8,286047000.7,N
1513753655.6,286047000.6,N
1513753675.4,286047000.4,N
1513753695.3,286047000.7,N
1513753715.1,286046999.9,N
1513753735.9,286047000.2,N
1513753755.7,286047000.0,N
1513753775.5,286046999.8,N
1513753795.4,286047002.7,N
1513753815.2,286047004.3,Y
1513753835.0,286047003.9,P
1513753836.0,286047003.9,N
1513753855.8,286047004.2,N
1513753875.6,286047004.0,N
1513753895.5,286047002.5,N
1513753915.3,286047002.2,N
1513753935.1,286046999.9,N
1513753955.9,286046999.9,N
1513753975.7,286047000.0,N
1513753995.6,286046999.7,N
1513754015.4,286047002.8,N
1513754035.2,286047002.3,N
1513754055.1,286046998.5,N
1513754056.0,286046998.5,N
1513754075.8,286047000.8,N
1513754095.6,286047000.1,N
1513754115.5,286047001.1,N
1513754135.3,286046997.2,N
1513754155.2,286046998.0,N
1513754175.9,286046995.9,N
1513754195.7,286046997.8,N
1513754215.6,286046995.0,N
1513754235.4,286046995.6,N
1513754255.2,286046995.6,N
1513754275.1,286046997.1,N
1513754276.0,286046997.1,N
1513754295.8,286046997.2,N
1513754315.7,286046996.7,N
1513754335.5,286046997.0,N
1513754355.3,286046996.5,N
1513754375.2,286046996.9,N
1513754395.0,286046996.5,N
1513754395.9,286046996.5,N
1513754415.8,286046998.3,N
1513754435.6,286046999.1,N
1513754455.4,286046998.6,N
1513754475.3,286046996.6,N
1513754495.1,286046997.2,N
1513754515.8,286046996.9,N
1513754535.7,286046999.5,N
1513754555.5,286046997.7,N
1513754575.4,286046995.7,N
1513754595.2,286046995.0,Y
1513754615.0,286046996.7,P
1513754615.9,286046996.7,P
1513754635.8,286046999.6,N
1513754655.6,286046996.9,N
1513754675.5,286046996.6,Y
1513754695.3,286047000.2,P
1513754715.1,286047002.4,N
1513754735.9,286047001.3,N
1513754755.7,286047003.8,N
1513754775.5,286047003.6,N
1513754795.4,286047003.7,N
1513754815.2,286047003.2,N
1513754835.1,286047003.5,N
1513754836.0,286047003.5,N
1513754855.8,286047003.6,N
1513754875.6,286047006.0,Y
1513754895.5,286046999.7,P
1513754915.3,286047002.2,N
1513754935.2,286047000.0,N
1513754955.9,286047001.1,N
1513754975.7,286046999.4,N
1513754995.6,286046999.2,N
1513755015.4,286046997.7,N
1513755035.2,286046999.6,N
1513755055.1,286046999.3,N
1513755056.0,286046999.3,N
1513755075.8,286046999.0,N
1513755095.7,286046997.4,N
1513755115.5,286046999.5,N
1513755135.3,286046998.8,N
1513755155.2,286046997.5,N
1513755175.0,286046996.9,N
1513755175.9,286046996.9,N
1513755195.8,286046995.5,N
1513755215.6,286046995.6,N
1513755235.4,286046998.0,N
1513755255.3,286046996.1,N
1513755275.1,286046995.5,N
1513755295.8,286046996.8,N
1513755315.7,286046997.1,N
1513755335.5,286046999.3,N
1513755355.4,286047002.8,N
1513755375.2,286047004.1,N
1513755395.0,286047001.3,N
1513755395.9,286047001.3,N
1513755415.8,286047001.5,N
1513755435.6,286047001.4,N
1513755455.4,286047004.4,N
1513755475.3,286047003.8,N
1513755495.1,286047005.4,N
1513755515.9,286047004.8,N
1513755535.7,286047003.1,N
1513755555.5,286047003.2,N
1513755575.4,286047005.8,N
1513755595.2,286047005.0,N
1513755615.1,286047004.9,N
1513755616.0,286047004.9,N
1513755635.8,286047008.8,N
1513755655.6,286047006.9,N
1513755675.5,286047009.8,N
1513755695.3,286047010.3,N
1513755715.1,286047010.0,N
1513755735.9,286047010.7,N
1513755755.7,286047006.8,N
1513755775.6,286047005.0,N
1513755795.4,286047004.5,N
1513755815.2,286047007.1,N
1513755835.1,286047008.8,N
1513755836.0,286047008.8,N
1513755855.8,286047008.2,N
1513755875.7,286047010.8,Y
1513755895.5,286047004.1,P
1513755915.3,286047002.2,P
1513755935.2,286047001.3,N
1513755955.0,286047007.4,Y
1513755955.9,286047007.4,P
1513755975.8,286047002.9,N
1513755995.6,286047003.1,N
1513756015.4,286047003.2,N
1513756035.3,286046999.7,N
1513756055.1,286047004.2,N
1513756075.8,286047004.5,N
1513756095.7,286047003.9,N
1513756115.5,286047005.8,Y
1513756135.4,286047002.6,P
1513756155.2,286047002.6,P
1513756175.0,286047004.3,P
1513756175.9,286047004.3,Y
1513756195.8,286046994.7,P
1513756215.6,286046991.4,N
1513756235.5,286046996.9,N
1513756255.3,286047007.5,N
1513756275.1,286047014.0,N
1513756295.9,286047016.0,N
1513756315.7,286047014.6,N
1513756335.5,286047013.9,N
1513756355.4,286047009.9,N
1513756375.2,286047017.0,N
1513756395.1,286047020.8,N
1513756396.0,286047020.8,N
1513756415.8,286047024.8,N
1513756435.6,286047019.4,N
1513756455.5,286047018.5,N
1513756475.3,286047015.9,N
1513756495.1,286047014.8,N
1513756515.9,286047017.6,N
1513756535.7,286047014.4,N
1513756555.6,286047015.5,N
1513756575.4,286047014.1,N
1513756595.2,286047013.4,N
1513756615.1,286047014.9,N
1513756616.0,286047014.9,N
1513756635.8,286047014.6,N
1513756655.7,286047021.2,N
1513756675.5,286047023.5,N
1513756695.3,286047017.6,N
1513756715.2,286047009.6,N
1513756735.0,286046999.8,N
1513756735.9,286046999.8,N
1513756755.7,286046995.6,N
1513756775.6,286046991.3,N
1513756795.4,286046988.1,N
